Tropical Cyclones
[Index]
Main Index Home Page Stock Weather Photos Extreme Storms Discussion Storm News and Storm Chasing Reports Tropical Cyclones / Hurricanes / Typhoons Weather Data and Links Wild Fires / Bushfires Weather Observation Techniques Weather Picture Catalogue Tornado Pictures and Reports Stock Video Footage and DVDs for sale
Season 2013-2014 Tropical Cyclone ALESSIA Track Map
Season 2013-2014 Summaries (Operational Data): [AU] [SIO] [SPAC] [SH]
<<- Previous TC | 2013-2014 Season | Next TC ->>

click for intensity scale information  Lat/long Grid: Show Hide

 Date Labels: Show Hide

Operational Tropical Cyclone Data : JTWC Advisories

Name: ALESSIA
Number: 1402

19 Nov 2013 06:00 UTC to 30 Nov 2013 12:00 UTC

    date/time    lat    long     hPa   cat  kts
2013-11-19 06    8.9   113.6    1010         15          
2013-11-19 12    9.5   113.5    1010         15          
2013-11-19 18   10.1   113.5    1010         15          
2013-11-20 00   10.7   113.3    1008         15          
2013-11-20 06   11.4   113.4    1008         15          
2013-11-20 12   11.6   113.9    1007         20          
2013-11-20 18   12.0   114.6    1004         25          
2013-11-21 00   12.4   115.4    1004         25          
2013-11-21 06   12.8   116.5    1002         25          
2013-11-21 12   13.2   117.5    1002         25          
2013-11-21 18   13.6   118.2    1000         30          
2013-11-22 00   14.1   119.1     996    1    35          
2013-11-22 06   14.3   120.3     993    1    40          
2013-11-22 12   14.5   121.6     989    1    45          
2013-11-22 18   14.7   122.7     989    1    45          
2013-11-23 00   14.7   123.8     989    1    45          
2013-11-23 06   14.6   124.9     989    1    45          
2013-11-23 12   14.3   125.8     993    1    40          
2013-11-23 18   14.0   126.7     993    1    40          
2013-11-24 00   13.8   127.5     993    1    40          
2013-11-24 06   13.8   129.0     996    1    35          
2013-11-24 12   13.8   130.7    1000         30          
2013-11-24 18   13.7   132.2    1000         30          
2013-11-25 00   13.4   133.5    1004         25          
2013-11-25 06   13.1   134.6    1004         25          
2013-11-25 12   13.0   135.3    1004         25          
2013-11-25 18   13.4   136.0    1004         25          
2013-11-26 00   14.2   136.5    1004         25          
2013-11-26 06   14.6   136.7    1004         25          
2013-11-26 12   15.1   136.9    1004         25          
2013-11-26 18   15.4   137.0    1000         30          
2013-11-27 00   15.7   137.3    1000         30          
2013-11-27 06   16.0   137.4     996    1    35          
2013-11-27 12   16.4   137.3     996    1    35          
2013-11-27 18   16.7   136.7    1000         30          
2013-11-28 00   16.6   136.0    1003         25          
2013-11-28 06   16.4   135.9    1003         20          
2013-11-28 12   16.2   136.3    1003         20          
2013-11-28 18   16.0   136.7    1004         20          
2013-11-29 00   15.8   137.1    1005         20          
2013-11-29 06   15.8   137.9    1005         20          
2013-11-29 12   15.9   138.8    1005         20          
2013-11-29 18   16.1   139.5    1010         15          
2013-11-30 00   16.5   139.5    1010         15          
2013-11-30 06   16.4   138.9    1010         15          
2013-11-30 12   15.5   137.6    1008         15          
Winds are 10-min average.

Tropical cyclone tracks developed by Michael Bath using operational warnings and advisories and Google Maps.


[Australian Severe Weather index] [Copyright Notice] [Email Contacts] [Search This Site] [Privacy Policy]
Document: tropical_cyclone_alessia.htm Updated: 2 May 2017